Regional Weather Roundup
Issued by NWS

Home | Current Version | Previous Version | Text Only | Print | Product List | Glossary Off
Versions: 1 2 3 4 5 6 7 8 9 10 11 12 13 14 15 16 17 18 19 20 21 22 23 24 25 26 27 28 29 30 31 32 33 34 35 36 37 38 39 40 41 42 43 44 45 46 47 48 49 50

000
ASUS43 KLOT 262110
RWRIL

ILLINOIS REGIONAL WEATHER ROUNDUP
NATIONAL WEATHER SERVICE CHICAGO/ROMEOVILLE IL
300 PM CST MON JAN 26 2015

NOTE: "FAIR" INDICATES FEW OR NO CLOUDS BELOW 12,000 FEET WITH NO
SIGNIFICANT WEATHER AND/OR OBSTRUCTIONS TO VISIBILITY.

* THESE STATIONS ARE NOT UNDER NWS QUALITY CONTROL. THEY ALSO MAY NOT
  REPORT WEATHER SUCH AS PRECIPITATION OR FOG.

ILZ001-002-007-009-015-016-024-262200-
NORTHWEST ILLINOIS

CITY           SKY/WX    TMP DP  RH WIND       PRES   REMARKS
MOLINE         CLOUDY    30  26  85 S6        29.80F WCI  24
STERLING*      CLOUDY    25  21  86 S7        29.83S WCI  17
SAVANNA*       CLOUDY    26  24  92 SE8       29.82S FOG     WCI  18
$$

ILZ003-004-008-010-011-017-018-262200-
NORTH CENTRAL ILLINOIS

CITY           SKY/WX    TMP DP  RH WIND       PRES   REMARKS
ROCKFORD       FRZ DRZL  24  20  84 S9        29.85S FOG     WCI  14
FREEPORT*      CLOUDY    23  20  89 SE12      29.82S FOG     WCI  12
ROCHELLE*      CLOUDY    23  20  90 SE10      29.84S WCI  12
DE KALB*       CLOUDY    22  19  87 SE10      29.84S WCI  11
PERU*          CLOUDY    28  25  89 S10       29.85S WCI  18
$$

ILZ005-006-012>014-019>023-262200-
NORTHEAST ILLINOIS

CITY           SKY/WX    TMP DP  RH WIND       PRES   REMARKS
CHICAGO-OHARE  LGT SNOW  25  21  85 S7        29.86S FOG     WCI  17
CHICAGO-MIDWAY LGT SNOW  28  22  78 S6        29.87F WCI  22
AURORA         LGT SNOW  26  19  74 S7        29.86S WCI  18
LANSING*       LGT SNOW  26  22  83 CALM      29.89S
JOLIET*        LGT SNOW  26  21  83 S6        29.88S WCI  19
WAUKEGAN       LGT SNOW  25  20  81 SE8       29.85F WCI  16
DUPAGE AIRPORT LGT SNOW  26  20  77 S8        29.85S WCI  18
KANKAKEE*      LGT SNOW  28  23  81 SE6       29.89S WCI  22
WHEELING       LGT SNOW  26  21  81 S5        29.88S WCI  20
MORRIS*        CLOUDY    27  23  85 S7        29.86S WCI  19
ROMEOVILLE*    LGT SNOW  26  22  85 S6        29.87S WCI  20
NORTHERLY ISL    N/A     27  21  78 SE6         N/A  WCI  21
$$

LMZ740>746-262200-
SOUTHERN LAKE MICHIGAN

STATION/POSITION SKY/WX   TEMP    WIND        PRES    VSBY  WAVE
                          AIR SEA DIR/SP/G                  HT/PER
                          (F)     (DEG/KT/KT) (MB)    (MI)  (FT/S)
WAUKEGAN HARBOR            26     150/  8/ 10   N/A
HARRISON CRIB              25     170/  6/  8   N/A
BURNHAM HARBOR             27     140/  4/  7   N/A
CALUMET HARBOR             26     170/  5/  6   N/A
MICHIGAN CITY              25      CALM  /  1   N/A
$$

ILZ025>027-034>036-040-047-049-050-058-095>099-262200-
WEST-CENTRAL ILLINOIS

CITY           SKY/WX    TMP DP  RH WIND       PRES   REMARKS
QUINCY         CLOUDY    40  33  76 SW7       29.83F
GALESBURG*     CLOUDY    30  28  92 S7        29.82S WCI  23
MACOMB*        CLOUDY    33  31  92 S5        29.85S WCI  28
JACKSONVILLE*  CLOUDY    35  30  83 S9        29.87R WCI  27
PITTSFIELD*    CLOUDY    35  31  85 S6        29.86F WCI  30
$$

ILZ028>032-037-038-041>044-048-051>054-059>061-262200-
CENTRAL ILLINOIS

CITY           SKY/WX    TMP DP  RH WIND       PRES   REMARKS
PONTIAC        MIX PCPN  29  26  88 S9        29.88S WCI  20
BLOOMINGTON    CLOUDY    27  25  92 S12       29.86S WCI  17
DECATUR        CLOUDY    29  28  96 S8        29.89R WCI  21
PEORIA         CLOUDY    29  25  85 S10       29.85S WCI  20
LACON*         CLOUDY    27  23  85 S8        29.85R WCI  18
LINCOLN*       CLOUDY    30  27  88 S8        29.88S WCI  23
SPRINGFIELD    CLOUDY    31  27  85 S9        29.88R WCI  23
TAYLORVILLE    CLOUDY    30  28  93 S8        29.89R WCI  23
$$

ILZ033-039-045-046-055>057-062-063-262200-
EAST-CENTRAL ILLINOIS

CITY           SKY/WX    TMP DP  RH WIND       PRES   REMARKS
CHAMPAIGN      LGT SNOW  26  23  88 S7        29.88S FOG     WCI  18
DANVILLE*      CLOUDY    28  22  78 S5        29.86F WCI  23
RANTOUL*       FLURRIES  29  24  81 S6        29.88S WCI  23
MATTOON        LGT SNOW  26  22  84 S7        29.88F FOG     WCI  18
PARIS*         LGT SNOW  28  25  89 NE5       29.91F WCI  23
$$

ILZ079-100>102-262200-
SOUTHWEST ILLINOIS

CITY           SKY/WX    TMP DP  RH WIND       PRES   REMARKS
BELLEVILLE     CLOUDY    36  30  79 VRB5      29.86F WCI  32
CAHOKIA*       PTSUNNY   38  30  73 S10       29.85F WCI  31
SPARTA*        CLOUDY    35  28  77 S9        29.91F WCI  28
$$

ILZ064>066-069>071-074>076-080>082-084>086-088>090-092>094-262200-
SOUTH-CENTRAL ILLINOIS

CITY           SKY/WX    TMP DP  RH WIND       PRES   REMARKS
CARBONDALE     FLURRIES  35  27  72 S8        29.94F WCI  29
CAIRO*         CLOUDY    40  31  70 SW9       29.96S
EFFINGHAM*     CLOUDY    30  23  74 SE7       29.91F WCI  23
MARION         CLOUDY    36  25  64 S9        29.95F WCI  29
MT. VERNON     CLOUDY    30  27  86 S6        29.93F WCI  24
CENTRALIA*     CLOUDY    32  27  83 S9        29.90F WCI  24
SALEM*         CLOUDY    32  28  86 S8        29.90F FOG     WCI  25
METROPOLIS*    MIX PCPN  36  29  75 W7        29.96S WCI  31
$$

ILZ067-068-072-073-078-083-087-091-262200-
SOUTHEAST ILLINOIS

CITY           SKY/WX    TMP DP  RH WIND       PRES   REMARKS
LAWRENCEVILLE  LGT SNOW  29  24  82 W8        29.95F WCI  21
FLORA*         LGT SNOW  29  27  93 S7        29.92F WCI  22
FAIRFIELD*     LGT SNOW  30  28  90 S5        29.92F WCI  25
HARRISBURG*    PTSUNNY   32  27  82 W3        29.98F
ROBINSON*      CLOUDY    30  24  78 W8        29.95F WCI  22
CARMI*         LGT SNOW  32  30  93 W6        29.96F WCI  26
$$

ABBREVIATIONS USED IN REMARKS
   TC - TEMPERATURE IN CELSIUS
  WCI - WIND CHILL INDEX
   HX - HEAT INDEX
  VSB - VISIBILITY
$$



USA.gov is the U.S. government's official web portal to all federal, state and local government web resources and services.